Regional Weather Roundup
Issued by NWS Grand Forks, ND

Home | Current Version | Previous Version | Graphics & Text | Print | Product List | Glossary On
Versions: 1 2 3 4 5 6 7 8 9 10 11 12 13 14 15 16 17 18 19 20 21 22 23 24 25 26 27 28 29 30 31 32 33 34 35 36 37 38 39 40 41 42 43 44 45 46 47 48 49 50
000
ASUS43 KFGF 181231
RWRFGF
PRAIRIE TO PINES  WEATHER ROUNDUP
NATIONAL WEATHER SERVICE EASTERN NORTH DAKOTA/GRAND FORKS ND
700 AM CDT SAT APR 18 2015

 **SATELLITE DATA USED TO AUGMENT SKY COVER AT AUTOMATED STATIONS**
 *****  WEATHER ACROSS EASTERN NORTH DAKOTA  *****

CITY           SKY/WX    TMP DP  RH WIND       PRES   REMARKS
GRAND FORKS    PTCLDY    32  26  78 E7        30.14S
6HR MIN TEMP:  27; 6HR MAX TEMP:  36;

GRAND FRKS AFB CLEAR     26  22  88 CALM      30.14S
GRAND FRKS NWS   N/A     36 N/A N/A E7          N/A
DEVILS LAKE    CLEAR     37  28  70 SE12      30.10R
6HR MIN TEMP:  34; 6HR MAX TEMP:  41;

FARGO          PTCLDY    37  24  59 NE5       30.10S
WAHPETON ARPT  MOSUNNY   45  25  45 E7        30.09S
$$

 ***** WEATHER ACROSS CENTRAL AND WESTERN NORTH DAKOTA  *****

CITY           SKY/WX    TMP DP  RH WIND       PRES   REMARKS
BISMARCK       PTCLDY    35  27  72 NE7       30.06F
6HR MIN TEMP:  34; 6HR MAX TEMP:  47;

MINOT          FAIR      31  25  78 E6        30.05S
6HR MIN TEMP:  29; 6HR MAX TEMP:  44;

JAMESTOWN      MOCLDY    34  26  72 E7        30.07F
6HR MIN TEMP:  31; 6HR MAX TEMP:  41;

MINOT AFB      CLEAR     29  27  92 SE3       30.04F
GARRISON         N/A     37  29  72 SE7       30.05S
WILLISTON      CLEAR     45  26  47 CALM      29.99F
6HR MIN TEMP:  42; 6HR MAX TEMP:  51;

DICKINSON      CLEAR     33  25  72 SE7       29.99F
6HR MIN TEMP:  33; 6HR MAX TEMP:  44;

HETTINGER      PTCLDY    31  25  78 CALM      30.02F
6HR MIN TEMP:  28; 6HR MAX TEMP:  37;

$$

 *****  OTHER AIRPORT OBSERVATIONS IN OUR AREA  *****

CITY           SKY/WX    TMP DP  RH WIND       PRES   REMARKS
WALHALLA       FAIR      30  30 100 S7        30.16S WCI  23
GRAFTON AIRPOR FAIR      30  27  86 E7        30.16S WCI  23
VALLEY CITY AR FAIR      39  27  60 E8        30.10S
CANDO          FAIR      27  25  93 SE8       30.11R WCI  18
CAVALIER APRT  FAIR      32  27  80 SE5       30.16F
GWINNER        SUNNY     36  23  60 N10       30.08F
SHEYENNE NWR     N/A     37  23  57 N3        29.95S
ROLLA          FAIR      32  28  86 SE6       30.11S
 ***** THE ABOVE OBSERVATIONS ARE NON NWS ARE NOT QUALITY
       CONTROLLED AND MAY MIS-REPORT RAIN FOR SNOW...
$$

  *****  WEATHER ACROSS NORTHERN MINNESOTA  *****

CITY           SKY/WX    TMP DP  RH WIND       PRES   REMARKS
FLAG ISLAND    CLEAR     36  30  80 E3        30.21F
WARROAD        CLEAR     34  28  80 E5        30.21S
ROSEAU         CLEAR     36  30  80 E7        30.19S
HALLOCK        CLEAR     36  28  75 E9        30.17S
THF RVR FALLS  CLEAR     36  30  80 E13       30.16S
6HR MIN TEMP:  36; 6HR MAX TEMP:  45;

BAUDETTE       CLEAR     33  29  85 E7        30.21F
6HR MIN TEMP:  31; 6HR MAX TEMP:  39;

WASKISH        CLEAR     34  30  86 CALM      30.20S
CROOKSTON      CLEAR     37  30  75 E8        30.14F
STEPHEN NDAWN    N/A     37  30  75 E13         N/A
GREENBUSH NDAW   N/A     32  28  86 E6          N/A
$$
  *****  WEATHER ACROSS CENTRAL AND WEST MINNESOTA  *****

CITY           SKY/WX    TMP DP  RH WIND       PRES   REMARKS
FOSSTON        CLEAR     37  30  75 E10       30.14S
BEMIDJI        CLEAR     36  31  81 E9        30.16S
PARK RAPIDS    CLEAR     43  30  60 E5        30.13S
6HR MIN TEMP:  42; 6HR MAX TEMP:  51;

ELBOW LAKE     FAIR      46  29  51 E15       30.07F
6HR MIN TEMP:  46; 6HR MAX TEMP:  55;

WADENA         CLEAR     39  28  65 E6        30.12R
DETROIT LAKES  CLEAR     45  32  61 E8        30.12S
MOORHEAD       PTCLDY    34  21  60 CALM      30.11R
FERGUS FALLS   PTCLDY    46  25  42 E9        30.09F
MORRIS MN      PTCLDY    48  27  43 E15       30.05F
STAPLES        CLEAR     43  28  56 E3        30.13R
$$
  *****  WEATHER ELSEWHERE ACROSS MINNESOTA  *****

CITY           SKY/WX    TMP DP  RH WIND       PRES   REMARKS
DULUTH         CLEAR     39  29  67 E15G22    30.18R
6HR MIN TEMP:  39; 6HR MAX TEMP:  52;

INTRNTL FALLS  CLEAR     28  25  88 CALM      30.23R
6HR MIN TEMP:  25; 6HR MAX TEMP:  39;

ELY            CLEAR     34  30  86 E3        30.23R
CLOQUET        CLEAR     39  30  70 E12G20    30.18R
WHEATON        PTCLDY    36  25  64 CALM      30.09S
BRAINERD       FAIR      40  30  67 NE7       30.14R
6HR MIN TEMP:  38; 6HR MAX TEMP:  53;

HIBBING        FAIR      33  28  81 NE6       30.20R
6HR MIN TEMP:  26; 6HR MAX TEMP:  47;

ALEXANDRIA     CLEAR     44  27  51 E12       30.10S
6HR MIN TEMP:  44; 6HR MAX TEMP:  55;

SAINT CLOUD    CLEAR     46  28  49 E9        30.10S
6HR MIN TEMP:  42; 6HR MAX TEMP:  53;

MINNEAPOLIS    MOCLDY    53  29  39 E9        30.09R
6HR MIN TEMP:  47; 6HR MAX TEMP:  58;

$$

  *****  WEATHER ACROSS SOUTH DAKOTA  *****

CITY           SKY/WX    TMP DP  RH WIND       PRES   REMARKS
SIOUX FALLS    LGT RAIN  54  32  43 SE7       30.01R
6HR MIN TEMP:  47; 6HR MAX TEMP:  56; 6HR PCP: TRACE;

BROOKINGS      PTCLDY    52  21  30 E10G16    30.03S
WATERTOWN      MOCLDY    51  25  36 E10       30.03F
6HR MIN TEMP:  38; 6HR MAX TEMP:  52;

HURON          CLOUDY    50  27  40 E8        29.99F
6HR MIN TEMP:  47; 6HR MAX TEMP:  52;

SISSETON         N/A     36  24  62 CALM      30.07F
ABERDEEN       MOCLDY    42  26  53 N8        30.04F
6HR MIN TEMP:  40; 6HR MAX TEMP:  51;

MITCHELL       CLOUDY    56  26  31 E5        29.99R
PIERRE         CLOUDY    52  37  56 NE7       29.98S
6HR MIN TEMP:  52; 6HR MAX TEMP:  54; 6HR PCP: TRACE;

MOBRIDGE       CLOUDY    50  27  40 N5        29.99F
RAPID CITY     CLOUDY    47  45  93 N3        30.01S
6HR MIN TEMP:  47; 6HR MAX TEMP:  50; 6HR PCP: TRACE;

$$

  *****  SOME WEATHER IN NEARBY STATES *****

CITY           SKY/WX    TMP DP  RH WIND       PRES   REMARKS
GLASGOW MT     CLEAR     40  29  64 SE13      29.92R
6HR MIN TEMP:  38; 6HR MAX TEMP:  45;

GREAT FALLS MT MOCLDY    37  29  72 W12       30.06R
6HR MIN TEMP:  36; 6HR MAX TEMP:  45;

CHEYENNE WY    CLOUDY    35  32  88 W6        29.95R
6HR MIN TEMP:  33; 6HR MAX TEMP:  35; 6HR PCP:  0.03;

SCOTTSBLUFF NE CLOUDY    42  32  67 SW5       29.94S
6HR MIN TEMP:  42; 6HR MAX TEMP:  42; 6HR PCP:  0.40;

OMAHA NE       CLOUDY    63  55  75 SE5       29.93R
6HR MIN TEMP:  60; 6HR MAX TEMP:  67; 6HR PCP: TRACE;

DES MOINES IA  CLOUDY    62  57  83 NE5       29.98R
6HR MIN TEMP:  62; 6HR MAX TEMP:  69; 6HR PCP:  0.16;

DAVENPORT IA   MOCLDY    54  45  71 CALM      30.01R
6HR MIN TEMP:  51; 6HR MAX TEMP:  58;

CHICAGO IL     PTCLDY    54  47  77 CALM      30.04R
6HR MIN TEMP:  53; 6HR MAX TEMP:  65;

EAU CLAIRE WI  PTCLDY    47  31  53 NE7       30.11S
6HR MIN TEMP:  40; 6HR MAX TEMP:  47;

LA CROSSE WI   PTCLDY    47  43  86 CALM      30.08R
6HR MIN TEMP:  45; 6HR MAX TEMP:  57;

$$

  *****  SOME NATIONAL WEATHER *****

CITY           SKY/WX    TMP DP  RH WIND       PRES   REMARKS
LA GUARDIA NY  MOSUNNY   61  45  55 CALM      29.99R
6HR MIN TEMP:  54; 6HR MAX TEMP:  61;

RALEIGH NC     CLOUDY    63  62  97 CALM      30.02S
6HR MIN TEMP:  61; 6HR MAX TEMP:  65;

ATLANTA GA     FOG       63  61  93 NE8       29.98S VSB 1/2
6HR MIN TEMP:  63; 6HR MAX TEMP:  63; 6HR PCP:  0.11;

NEW ORLEANS LA LGT RAIN  72  69  90 NE8       29.91F
6HR MIN TEMP:  71; 6HR MAX TEMP:  74; 6HR PCP:  0.33;

OKLAHOMA CITY  MOCLDY    59  54  83 CALM      29.89F
6HR MIN TEMP:  59; 6HR MAX TEMP:  66;

ALBUQUERQUE NM CLOUDY    37  24  59 CALM      29.99S
6HR MIN TEMP:  35; 6HR MAX TEMP:  44;

SALT LAKE CITY PTCLDY    43  36  76 SE5       30.02R
6HR MIN TEMP:  41; 6HR MAX TEMP:  52;




USA.gov is the U.S. government's official web portal to all federal, state and local government web resources and services.